ECMWFFLT1_500_spd_000.txt.gz
Wind_Speed
48 49 50 52 54 55 56 56 57 57 58 58 57 56 55 55 54 51 48 46 47 47 46 45 43 42 45 48 49 51 53 55 56 58 59 61 61 62 62 63 64 65 66 66 67 68 68 68 68 67 67 68 69 70 71 72 73 74 75 75 75 75
50 50 51 53 54 55 56 56 57 58 60 60 59 57 57 58 57 54 51 49 49 49 49 48 48 47 47 50 52 53 54 56 57 59 61 63 64 64 65 65 66 67 68 68 69 69 69 69 68 68 68 69 70 71 72 73 74 75 75 75 75 76
52 52 52 54 54 54 55 56 58 59 61 61 61 60 59 59 58 57 56 54 53 53 53 53 52 52 52 53 55 56 57 58 60 62 64 65 66 66 67 67 67 68 69 70 71 71 70 70 69 69 69 71 72 73 74 74 75 75 75 75 77 79
55 54 53 53 53 53 55 57 58 59 59 59 61 61 60 60 60 60 60 60 58 57 57 56 55 55 55 55 56 56 57 59 61 63 65 66 67 68 68 68 68 69 70 71 72 72 71 71 70 71 72 73 74 74 74 75 75 75 76 77 79 80
57 57 54 53 54 55 56 57 57 57 57 57 58 58 58 58 58 59 59 59 58 57 56 56 55 55 55 55 56 56 57 59 61 62 64 66 68 68 69 69 69 69 70 71 72 72 72 71 71 72 73 74 74 75 75 76 76 77 78 79 80 81
57 58 57 55 55 56 56 56 56 55 55 55 54 54 54 55 55 56 56 55 55 55 55 55 55 55 55 56 57 58 59 61 61 62 64 66 68 69 69 69 68 68 69 70 71 72 71 72 72 73 74 75 75 76 76 77 78 78 79 79 80 81
59 59 59 57 56 55 54 54 54 54 54 54 55 55 55 56 56 56 56 55 55 55 56 57 58 58 59 59 60 61 63 64 65 65 66 67 68 69 69 69 68 69 70 71 71 71 71 71 72 73 74 75 76 76 77 78 78 78 78 79 80 81
61 61 60 58 56 53 51 51 52 54 56 57 57 57 56 56 56 56 56 56 57 58 59 60 61 61 62 62 63 65 67 68 68 68 68 69 69 70 70 69 69 69 70 71 71 71 71 72 73 74 75 76 76 76 76 76 76 76 77 79 80 80
61 61 60 58 54 51 51 51 52 54 56 56 56 56 56 56 56 57 57 58 59 60 60 61 62 63 64 65 66 68 69 70 70 70 69 69 69 69 69 69 69 69 70 70 70 71 71 72 73 74 75 75 74 73 72 73 74 75 77 78 78 79
59 59 58 55 53 52 52 52 52 53 54 56 57 57 57 58 58 58 58 59 59 60 60 61 62 64 65 67 68 70 71 71 71 70 69 68 68 67 67 67 68 68 69 70 70 70 71 73 74 75 74 71 69 68 69 71 72 73 74 75 76 77
54 55 55 54 52 52 53 53 52 53 55 58 59 60 60 59 58 57 58 59 60 60 61 62 63 65 67 69 70 71 71 70 69 68 67 66 66 65 65 65 66 66 67 68 69 71 72 74 75 74 71 67 67 68 69 69 70 71 73 74 75 75
53 54 53 52 51 51 53 53 53 55 57 59 60 61 60 58 57 58 59 60 61 61 62 64 65 66 67 68 68 68 67 65 64 63 62 63 62 62 63 63 64 64 65 67 70 72 73 74 74 72 69 68 68 68 68 68 69 72 73 74 74 74
54 54 52 51 52 54 55 55 56 58 59 60 62 62 60 58 57 58 60 62 63 63 64 64 65 65 65 64 64 62 60 59 58 58 59 59 60 60 60 61 61 63 65 68 71 72 73 73 73 72 70 69 69 68 67 69 71 72 73 73 73 74
55 55 55 57 58 60 60 59 60 62 62 64 64 62 59 58 58 60 62 63 63 63 63 62 62 61 61 60 60 59 59 59 59 60 61 61 61 62 62 61 62 64 67 70 72 74 74 74 72 71 70 70 70 69 69 70 70 71 72 72 74 75
60 60 61 62 63 62 62 62 63 64 65 66 64 61 59 59 60 62 62 63 62 62 61 60 59 59 59 60 60 60 61 63 64 64 64 63 63 63 63 63 64 66 70 73 75 76 77 75 72 70 70 70 70 70 69 68 69 70 71 73 75 76
62 62 62 63 62 61 61 62 64 65 66 65 62 61 60 60 61 63 63 63 63 62 61 61 61 62 62 63 64 64 66 66 66 65 64 63 63 63 64 65 67 70 73 75 77 78 77 75 71 69 69 69 68 67 67 67 69 70 72 74 75 76
63 64 64 63 62 60 60 62 64 66 65 64 63 62 61 61 62 64 65 66 67 67 66 66 66 67 67 68 67 66 65 64 63 62 61 61 62 63 64 66 67 68 69 70 73 76 76 72 69 67 67 66 66 65 66 68 69 71 73 74 74 75
66 65 64 62 60 59 60 63 65 66 66 66 66 64 62 62 64 66 69 71 72 73 72 71 70 69 67 65 64 62 59 58 58 58 58 59 61 63 65 66 67 66 65 67 71 74 74 70 67 66 66 66 66 66 67 69 70 71 72 72 72 73
66 65 63 62 61 61 63 65 67 68 69 69 67 64 64 65 67 70 71 72 73 73 71 69 67 64 62 59 58 57 55 54 55 56 57 59 62 65 68 70 69 66 65 67 70 72 71 69 67 66 66 66 67 67 68 69 70 70 70 70 70 71
62 63 63 63 63 64 65 66 68 69 69 68 66 65 65 66 68 69 69 69 69 68 65 63 61 59 57 56 55 54 54 55 56 58 59 60 63 65 67 69 68 65 63 64 67 69 70 70 69 68 68 68 68 69 69 69 68 68 68 68 68 70
61 63 65 66 65 65 66 67 68 68 68 67 67 65 62 62 65 66 66 66 66 64 61 59 57 55 54 53 55 56 57 59 60 60 61 62 63 65 67 68 67 66 64 63 64 65 67 69 70 70 70 70 70 70 69 68 67 67 67 67 67 68
64 67 69 70 70 69 69 69 70 70 69 68 66 62 58 59 62 63 64 65 64 61 59 56 53 53 54 57 60 61 61 61 61 62 64 66 67 69 69 67 65 64 65 65 65 64 64 67 70 72 72 72 71 70 67 66 67 67 66 66 66 66
70 73 74 74 73 71 69 69 68 67 65 63 61 59 58 59 60 61 64 65 64 60 57 54 53 54 57 60 62 62 62 64 65 67 69 71 71 71 70 67 65 65 65 66 67 66 65 66 68 70 71 71 70 67 65 65 66 66 65 65 65 65
75 77 75 72 69 66 64 63 63 62 61 60 59 60 60 61 61 62 64 64 63 60 58 57 57 58 59 62 64 64 66 68 70 73 74 74 74 73 70 67 66 66 67 66 67 67 66 67 67 69 70 69 66 64 63 64 65 65 65 64 63 63
72 72 69 65 61 60 60 61 61 61 60 60 60 61 63 63 62 61 60 60 60 60 62 63 63 62 63 66 67 68 70 72 75 77 76 74 74 72 70 68 68 69 68 66 66 67 68 68 68 68 68 65 63 62 63 63 64 64 63 63 63 63
66 64 62 60 58 58 58 59 60 60 61 62 62 62 61 59 56 54 54 55 58 61 65 66 66 66 67 70 71 71 73 75 78 78 74 70 70 69 68 68 69 68 66 64 65 67 69 70 70 68 66 62 61 61 62 62 62 62 63 63 63 63
64 61 61 61 61 61 60 60 62 63 63 62 59 57 56 55 55 56 57 58 60 64 66 67 69 70 71 72 73 74 76 77 77 75 71 68 66 66 66 66 66 64 62 63 65 68 70 70 70 67 63 60 59 60 60 60 60 61 62 62 62 62
65 63 63 64 65 65 64 64 66 66 62 56 52 52 54 57 61 64 65 65 66 66 67 70 72 74 74 73 74 76 77 79 77 74 71 69 67 66 65 64 62 60 61 64 67 68 69 70 68 64 60 58 58 58 58 58 58 60 62 62 61 62
67 67 68 69 70 70 69 69 69 66 59 53 51 54 58 62 67 69 69 69 70 70 71 72 74 75 75 75 77 78 78 79 78 75 72 70 69 67 65 63 60 59 61 64 67 67 68 68 65 61 58 57 57 57 56 56 57 59 61 61 61 62
71 72 74 75 76 76 74 72 71 66 60 56 56 59 63 68 72 73 73 73 73 74 75 76 77 79 80 81 82 82 81 81 81 79 75 72 71 69 65 62 62 61 61 65 67 67 67 65 62 58 57 56 56 55 55 55 56 58 60 61 61 62
74 76 78 79 79 78 76 74 72 69 65 64 65 67 71 75 77 78 78 78 78 80 82 83 85 87 88 89 89 88 86 84 83 81 76 73 72 70 65 63 64 64 64 66 67 66 65 62 59 57 56 55 54 53 53 54 56 58 60 61 62 63
77 78 79 80 79 77 74 72 70 68 68 70 72 74 76 78 79 81 81 82 83 86 89 91 94 96 96 96 95 93 91 87 84 81 76 71 71 69 65 62 64 66 67 67 67 65 63 60 58 56 55 53 52 51 52 54 56 58 60 61 63 64
84 83 81 81 80 78 74 71 69 69 70 72 75 76 77 79 81 82 83 84 87 90 93 98 102 103 102 101 98 95 92 88 83 79 74 69 69 68 64 62 64 67 68 68 65 63 61 59 56 55 52 50 50 50 51 53 55 58 59 61 63 65
90 88 86 86 87 87 85 83 82 80 80 81 81 80 81 82 82 83 84 87 90 94 99 104 107 107 105 102 98 95 91 85 81 77 72 69 69 68 65 65 67 68 68 66 64 62 60 57 55 53 50 48 48 49 50 53 55 57 59 61 63 65
97 96 93 91 92 92 91 91 92 91 89 87 86 84 84 85 86 87 88 90 93 98 106 110 109 107 104 100 96 92 86 82 79 76 71 69 69 68 67 68 67 66 66 65 63 60 58 56 53 50 47 46 46 48 50 53 55 57 59 61 64 66
102 101 98 96 95 95 94 95 95 95 92 90 89 90 91 92 93 93 93 94 99 107 112 111 107 104 100 96 92 87 81 79 78 74 70 69 69 68 68 67 65 65 65 64 60 57 56 54 51 47 44 43 45 47 50 53 55 57 59 62 64 66
108 104 102 100 99 99 98 98 98 98 98 97 97 99 99 98 98 98 101 106 111 113 112 107 103 99 95 90 86 81 77 76 74 71 68 69 69 68 68 67 66 65 64 60 57 55 54 52 49 45 42 42 44 47 50 52 54 57 60 62 65 67
113 107 105 104 103 103 102 102 102 103 105 106 106 106 105 105 106 110 114 115 113 110 106 102 99 95 90 85 81 77 74 73 71 68 67 69 70 70 70 68 65 63 61 57 54 52 52 50 46 42 40 42 44 47 49 51 53 56 59 62 64 66

ECMWFFLT1_500_spd_003.txt.gz
Wind_Speed
45 45 44 45 45 46 48 50 52 53 53 53 54 54 55 55 56 57 58 59 58 57 56 54 52 51 51 51 50 51 52 52 53 54 55 56 58 59 59 60 60 60 60 60 60 60 61 61 61 62 62 64 66 68 69 69 68 68 68 69 68 67
46 46 46 46 45 45 46 48 50 52 54 54 54 56 56 56 57 57 58 58 58 56 55 53 52 52 52 51 51 50 50 51 51 52 53 54 56 58 59 59 60 59 58 58 58 59 60 61 62 63 64 66 68 70 71 71 71 70 70 69 69 68
48 49 51 51 49 47 48 49 50 52 54 55 55 57 57 58 58 58 58 57 57 55 54 53 52 51 51 51 51 50 50 51 50 50 50 51 53 55 57 57 58 58 57 57 59 60 62 63 64 66 67 70 71 73 74 73 72 72 71 70 69 69
51 53 55 56 55 53 52 52 53 55 56 56 56 57 57 59 59 58 58 58 57 55 53 52 51 50 50 51 51 50 51 52 51 50 51 52 53 55 57 58 58 59 59 60 61 63 64 66 67 69 70 72 74 75 75 74 73 72 71 70 70 69
56 59 60 59 59 57 57 56 56 57 58 58 57 57 57 58 58 58 58 57 56 53 51 51 51 51 50 50 50 50 51 52 52 53 54 55 57 58 59 60 60 60 61 62 63 64 66 68 69 71 72 74 75 76 76 74 73 72 71 71 70 70
62 64 64 63 63 61 60 60 60 60 60 60 59 59 58 57 56 57 57 56 54 52 51 51 52 51 49 49 49 51 52 54 55 56 57 58 59 60 61 61 61 62 63 64 65 66 68 69 70 71 72 74 75 75 74 73 72 71 70 70 70 69
65 66 66 67 66 64 63 64 63 63 63 62 62 61 59 57 55 55 55 54 53 53 52 51 50 49 49 50 51 53 54 55 56 58 59 60 60 61 62 62 62 64 65 66 67 68 68 68 68 69 70 71 71 71 71 70 69 68 67 67 68 68
68 69 68 68 68 67 67 67 66 65 65 64 62 61 60 58 56 54 53 53 54 54 52 51 50 50 50 52 53 54 55 56 57 58 59 60 60 61 63 64 65 66 67 67 67 67 66 66 65 65 65 65 65 66 66 65 63 63 64 65 67 69
72 71 70 68 67 69 70 71 70 67 65 63 61 61 60 59 57 54 52 53 54 54 52 51 52 52 53 55 56 57 58 58 58 59 60 61 61 63 64 65 66 66 67 66 66 65 63 62 62 61 61 61 61 62 62 61 61 62 65 68 71 72
70 71 70 68 68 70 71 71 69 67 66 64 61 60 59 57 55 54 54 55 54 53 53 54 55 56 58 59 59 59 58 58 59 60 62 62 63 64 65 65 66 66 65 64 63 62 61 62 62 62 62 63 63 63 62 61 62 64 68 72 73 72
64 67 69 68 69 70 69 67 66 67 67 64 61 60 58 55 53 54 55 56 54 54 56 57 59 60 61 60 59 58 57 58 60 62 63 64 64 64 64 63 63 63 63 62 62 62 62 64 65 65 65 65 63 62 61 62 63 65 68 70 70 69
66 66 67 67 68 69 69 68 67 68 68 64 61 58 55 53 53 55 56 56 56 57 58 59 61 61 61 60 58 58 59 60 61 63 64 63 63 62 61 61 62 62 62 62 63 63 64 65 66 66 65 64 62 61 61 62 63 65 65 66 66 67
69 68 66 67 68 68 68 67 68 69 68 62 57 54 53 54 55 56 56 57 58 58 58 59 60 61 61 60 60 60 61 62 63 63 63 63 63 62 62 63 63 63 64 65 65 65 65 65 64 63 62 62 62 62 62 63 64 65 65 65 66 67
65 64 66 68 69 69 68 67 67 67 63 58 55 56 58 59 59 58 59 59 59 58 58 59 61 61 62 61 62 62 63 63 64 64 64 65 65 65 65 65 65 66 66 65 64 62 61 60 59 59 60 61 62 63 64 65 65 65 65 65 66 67
61 61 64 66 67 69 68 66 64 62 60 59 58 59 60 61 61 61 60 60 59 58 59 60 62 63 63 63 63 64 64 64 65 65 66 67 65 64 62 62 62 62 60 59 57 55 55 55 57 60 62 64 66 66 67 67 68 67 66 65 65 66
60 60 61 62 65 68 67 66 64 63 64 63 60 58 59 60 61 61 60 60 59 59 60 62 64 65 65 65 65 65 65 65 66 67 66 64 62 59 57 56 56 55 54 53 52 53 54 56 58 61 64 65 66 66 67 68 68 68 66 65 65 65
61 60 61 61 63 66 67 66 66 67 69 68 63 60 61 61 61 62 61 61 61 62 63 65 66 67 67 67 67 66 66 66 66 65 63 59 57 55 53 53 52 52 52 53 53 54 56 58 60 62 64 65 66 66 66 66 67 66 64 64 64 64
65 65 63 61 61 65 67 68 70 71 72 70 63 60 61 62 63 62 62 63 64 65 66 67 68 69 69 68 67 66 66 66 64 62 59 56 54 52 51 50 51 52 53 54 55 57 58 60 62 65 67 70 70 69 67 65 65 64 64 64 64 64
68 68 68 64 60 63 67 71 72 72 71 67 63 60 62 63 62 62 63 65 66 67 67 68 69 68 67 66 66 66 65 63 62 60 58 57 55 52 50 50 51 53 54 56 58 60 61 63 65 68 71 72 73 71 68 66 65 65 65 64 64 63
72 74 74 68 61 62 67 71 71 69 67 65 64 63 64 65 64 65 67 68 68 68 68 68 67 66 66 65 64 63 61 61 60 60 59 58 57 55 53 52 53 54 56 58 60 62 64 65 67 70 71 71 69 67 66 64 65 65 63 62 61 62
74 75 74 69 63 62 66 68 67 65 63 63 64 64 65 65 66 68 70 71 71 71 70 69 68 68 66 63 61 59 59 60 61 61 61 60 59 58 57 57 57 58 60 62 63 64 65 66 68 69 69 68 65 62 61 61 62 61 60 59 60 62
74 74 73 69 64 63 65 66 64 62 61 62 63 65 67 68 71 73 74 74 74 74 73 72 71 69 64 59 58 59 61 62 63 64 63 61 60 60 60 61 61 63 64 64 65 67 67 67 68 68 68 67 64 61 58 59 59 59 58 58 60 63
74 73 72 67 62 61 63 65 64 63 62 62 63 66 67 70 73 75 76 76 75 74 73 72 71 67 62 59 60 62 63 65 66 66 63 60 60 61 62 63 64 64 64 64 66 68 69 69 70 70 70 69 66 63 60 59 59 59 58 59 61 64
73 70 68 66 63 63 65 67 66 64 63 61 62 63 64 65 67 71 74 74 73 71 71 70 68 64 61 61 63 64 65 67 65 62 60 59 60 62 64 65 65 65 64 64 64 66 69 71 72 74 75 73 70 67 63 61 60 59 59 61 64 65
69 68 67 67 67 68 68 66 63 61 58 57 58 59 61 63 65 67 70 71 69 68 67 67 65 62 60 62 65 67 67 67 63 59 58 60 62 64 66 67 67 67 66 66 66 67 70 72 74 77 78 78 75 71 67 64 62 61 62 65 66 66
66 67 67 67 68 69 66 61 59 57 55 54 56 57 59 62 64 65 66 67 67 66 65 66 65 62 61 64 67 68 68 66 63 61 61 63 65 67 68 68 68 69 69 70 70 72 74 77 79 80 81 80 77 73 69 67 65 64 66 68 69 68
64 64 63 64 65 65 63 61 60 58 55 54 55 56 59 62 64 65 66 67 67 67 67 67 67 65 65 67 68 69 69 68 65 62 62 63 65 68 70 70 71 72 73 74 75 76 78 81 83 83 83 81 78 73 69 67 66 65 68 71 71 70
64 64 64 65 65 66 65 64 62 60 58 57 56 56 58 61 64 66 66 67 67 68 69 70 70 71 71 71 71 71 72 71 68 66 64 65 66 69 72 73 74 74 75 76 77 79 82 84 85 85 83 81 78 73 68 66 66 67 69 72 72 71
68 69 68 67 68 70 70 68 65 62 60 59 57 56 57 60 63 65 66 66 67 69 71 74 76 77 77 75 73 74 74 74 72 70 69 69 70 73 75 77 77 77 77 77 79 81 83 85 86 85 82 79 76 71 67 65 66 69 72 73 73 71
72 73 72 70 70 72 73 71 68 65 62 58 56 57 57 60 63 65 66 67 67 68 72 76 79 80 80 78 76 76 77 77 77 75 73 73 74 76 78 79 80 79 79 79 81 82 84 85 85 83 80 77 73 69 67 67 69 71 73 73 71 70
76 76 76 74 72 73 75 73 70 67 63 60 58 59 60 61 64 66 68 67 67 69 72 76 78 80 81 81 80 78 78 78 79 78 77 76 77 79 80 81 81 81 81 82 83 83 84 84 83 80 77 75 72 69 68 69 71 72 73 71 69 68
79 79 79 78 77 76 77 76 74 71 67 64 63 65 65 66 66 68 69 69 69 70 71 74 78 81 82 83 82 81 80 79 78 78 78 79 81 83 84 84 84 83 83 84 84 84 83 84 81 76 73 73 72 69 68 70 72 72 71 69 67 65
83 81 80 80 80 79 79 78 77 75 72 68 67 68 69 69 69 70 71 70 70 71 72 74 78 82 84 84 84 83 84 83 82 81 81 82 84 86 86 86 85 86 87 87 86 84 83 83 79 73 71 72 70 68 68 70 71 70 68 66 64 63
84 83 82 82 83 83 83 82 81 79 77 73 71 72 74 74 74 75 74 73 71 72 73 76 80 84 86 88 87 85 85 86 86 84 83 84 85 87 87 87 88 90 91 89 86 83 82 81 77 72 70 70 69 68 69 70 70 68 65 63 61 60
81 82 82 82 83 83 84 84 82 81 80 78 77 77 77 78 79 79 78 77 76 76 76 79 82 86 90 92 91 88 86 87 87 86 86 87 87 88 89 91 93 93 91 87 84 83 82 79 74 70 70 71 70 69 69 68 67 64 62 60 59 57
87 85 85 84 84 84 85 85 84 83 83 83 82 81 82 83 84 84 84 84 84 84 84 86 89 92 94 96 96 95 94 93 93 92 90 89 89 91 94 96 95 91 86 83 81 80 78 75 71 69 69 70 68 67 67 66 64 61 58 57 56 55
98 95 93 93 92 92 91 91 89 89 88 88 87 87 88 89 91 92 93 94 95 95 95 96 96 97 98 99 100 101 102 102 100 99 96 93 94 97 99 97 92 85 79 76 75 74 72 70 67 67 67 67 66 67 66 64 60 57 55 55 54 53
109 107 104 103 102 101 100 99 101 103 103 101 100 100 102 105 108 109 108 106 106 107 108 106 102 100 100 101 102 103 104 105 105 104 102 101 101 101 98 94 88 82 76 73 72 70 67 65 65 67 68 68 67 65 63 59 56 54 53 52 51 50

ECMWFFLT1_500_spd_006.txt.gz
Wind_Speed
43 42 40 40 44 47 46 43 42 42 43 45 47 50 50 49 50 50 50 51 52 54 55 56 57 59 60 61 61 60 59 59 59 60 60 59 58 55 52 53 55 55 54 54 56 57 58 59 58 58 58 58 59 60 60 60 60 60 60 61 62 62
41 41 40 41 45 50 51 46 42 42 45 46 47 49 51 51 51 52 52 53 55 56 57 58 58 59 61 62 61 60 60 60 60 61 61 62 61 57 53 53 53 53 52 51 52 53 54 55 55 55 56 57 59 61 62 62 62 62 63 63 64 65
42 42 42 44 49 55 56 50 45 44 46 46 47 49 51 52 53 54 55 56 57 57 58 59 60 61 62 62 62 61 62 62 61 62 63 62 60 56 54 53 53 53 52 51 51 51 52 54 55 56 58 60 62 64 65 64 64 65 65 65 66 67
44 43 46 49 54 58 59 55 51 49 48 47 48 50 53 55 57 58 58 59 59 58 59 60 60 61 62 62 62 62 63 64 63 64 64 62 59 56 54 54 53 53 52 51 52 52 53 55 57 59 61 63 64 65 65 65 66 66 66 67 68 68
47 49 51 54 57 59 60 59 57 55 54 53 52 53 55 57 59 61 61 61 61 60 60 61 61 61 62 62 63 64 65 65 65 65 64 61 59 57 55 54 53 52 52 52 52 53 55 57 59 60 62 62 63 63 64 65 66 66 66 67 67 68
50 53 56 57 58 59 59 60 60 59 59 58 58 57 57 59 60 61 61 62 63 63 62 61 61 62 63 62 62 63 64 65 65 64 62 60 59 57 54 53 52 52 52 52 53 55 57 59 61 61 61 61 62 64 65 66 65 65 65 66 66 66
54 54 56 56 56 56 58 59 61 62 62 62 62 60 59 59 59 60 61 62 63 64 64 64 63 63 62 61 60 61 62 63 63 63 61 60 58 55 54 53 53 54 55 56 56 57 59 60 61 61 61 62 64 66 66 65 63 63 63 65 65 65
54 52 51 52 53 56 58 56 57 60 60 60 58 56 56 54 54 56 59 60 62 64 65 66 65 63 60 58 59 60 61 61 61 60 60 58 57 56 55 56 57 59 59 58 57 57 59 60 61 61 62 64 65 66 65 63 62 62 64 65 66 66
53 50 48 49 53 55 54 51 52 56 58 58 57 55 55 54 52 53 54 57 59 61 64 65 64 62 59 58 59 60 60 59 58 57 56 56 57 57 58 60 61 61 60 58 57 58 60 61 61 61 62 63 64 65 64 63 63 63 64 66 67 67
56 54 52 53 55 53 51 52 54 56 56 57 56 56 56 54 53 53 53 55 56 58 61 64 64 62 61 60 61 61 59 57 57 56 55 55 57 60 62 63 63 61 59 58 59 59 60 61 61 61 61 63 64 65 65 64 65 66 66 67 67 67
61 59 58 59 60 58 57 59 60 60 58 58 57 57 56 56 56 56 57 57 57 59 62 64 64 64 63 61 61 60 59 58 57 57 57 58 59 61 63 64 63 61 59 59 59 60 60 60 61 62 63 65 66 66 66 66 66 66 67 67 65 64
64 64 63 64 65 64 63 64 64 64 63 62 61 60 59 61 62 62 63 64 65 67 67 67 66 65 64 62 60 59 59 58 58 59 59 59 59 61 63 63 62 61 59 60 60 60 60 60 61 63 64 65 65 65 65 63 63 63 62 62 61 61
67 68 69 70 69 68 68 68 67 68 68 69 69 68 68 68 68 69 71 71 70 70 69 69 67 66 63 61 60 59 58 58 58 59 59 59 60 61 62 62 61 60 59 60 60 60 60 60 61 62 62 61 61 60 59 58 58 58 58 58 59 59
70 71 72 72 72 72 72 72 71 73 76 79 81 81 80 80 79 79 78 74 69 68 67 66 65 65 64 62 60 59 58 58 58 58 58 59 60 62 63 62 61 60 59 59 59 59 59 59 59 59 58 57 56 56 56 56 56 57 57 58 58 59
74 74 73 73 74 75 75 76 77 78 80 84 86 86 85 84 83 83 80 75 70 68 66 65 64 64 62 60 58 57 57 57 57 58 59 60 61 62 63 63 61 60 60 59 59 58 58 57 56 55 55 55 55 55 55 55 55 56 57 59 60 61
75 76 76 76 78 78 78 80 81 82 83 85 86 85 85 84 82 79 76 74 71 68 66 65 64 62 60 58 57 57 57 57 57 59 60 61 62 63 64 63 62 61 60 59 57 56 55 54 54 54 54 55 55 55 54 53 54 55 57 58 59 60
73 75 78 81 83 83 80 80 81 82 84 84 83 83 83 81 79 76 74 72 70 67 64 61 60 59 58 57 56 56 57 57 57 59 61 62 64 65 65 64 63 61 59 57 55 54 53 52 52 53 54 55 56 55 54 54 55 56 57 58 58 58
73 74 77 81 85 85 82 81 82 82 82 82 81 81 80 78 77 75 74 73 70 64 59 56 56 56 56 55 55 55 56 57 58 60 62 64 65 65 66 65 61 59 57 55 54 53 52 53 53 53 54 56 57 57 56 57 58 60 61 61 62 61
74 75 75 77 80 81 80 80 80 80 80 79 79 79 79 78 77 76 75 74 70 63 56 54 53 53 54 55 55 56 57 58 59 61 63 65 65 66 67 64 60 58 58 57 55 54 54 55 55 55 56 58 59 59 58 59 61 62 63 64 64 65
71 72 73 74 75 75 75 75 76 77 78 79 79 80 81 80 79 78 75 74 71 64 57 54 53 53 54 56 57 58 59 60 61 62 64 65 66 66 66 65 62 60 60 59 57 57 57 58 58 58 59 60 61 61 60 61 62 63 63 63 63 64
64 67 69 71 72 72 72 72 73 74 75 78 80 81 81 80 79 78 76 75 72 66 59 54 53 54 56 57 59 62 63 64 64 64 65 66 66 66 67 68 68 66 64 62 60 60 61 61 60 60 61 62 62 62 62 63 63 62 62 62 62 64
60 62 64 67 69 71 72 73 74 74 74 74 75 75 75 75 75 76 76 75 71 66 60 55 54 56 56 57 61 64 65 66 66 66 67 68 68 68 68 69 69 68 67 65 63 63 63 63 62 62 62 62 62 61 63 64 65 64 64 63 64 66
63 62 62 64 67 69 72 74 75 77 76 73 70 70 70 72 73 75 74 72 68 65 62 58 57 58 58 59 62 63 64 65 65 66 66 66 67 67 67 67 66 67 67 65 63 63 64 64 64 64 63 62 62 63 65 66 67 67 67 67 68 70
65 64 63 63 65 69 71 72 71 73 75 72 70 70 71 71 73 73 72 71 68 64 62 60 60 62 63 64 65 65 65 65 65 65 64 64 65 66 66 65 65 65 66 65 64 64 65 66 67 68 67 66 66 67 67 68 68 68 68 69 71 73
67 64 64 65 67 69 71 71 70 71 72 72 73 74 75 75 77 76 76 74 69 64 63 63 64 65 66 67 68 67 66 65 64 63 62 62 64 65 65 64 64 64 65 67 67 67 67 68 70 73 73 72 71 70 69 69 69 69 70 71 72 75
68 65 64 65 67 69 71 72 72 73 74 75 76 76 76 77 77 77 76 74 70 67 67 68 68 68 68 67 67 66 65 64 64 64 63 62 63 64 64 64 63 64 66 69 71 72 72 72 74 76 77 76 76 75 73 72 72 72 72 73 74 75
70 68 66 64 65 68 71 72 72 73 74 75 75 74 74 74 74 74 74 73 71 70 70 69 68 68 66 65 65 64 63 64 65 65 63 62 63 63 64 64 64 65 67 70 73 76 78 79 79 80 80 80 80 79 78 77 76 76 76 76 77 77
71 72 70 66 65 69 72 74 73 73 74 75 75 75 74 74 73 74 75 73 71 70 69 67 66 65 64 64 64 63 63 64 65 64 62 62 63 63 63 64 65 67 69 72 75 79 82 84 84 84 83 83 84 85 84 83 81 79 80 81 81 80
71 74 74 69 68 71 75 77 76 75 76 77 77 77 76 75 75 77 78 76 73 71 69 67 66 65 65 65 65 65 66 66 66 64 62 61 62 63 64 65 66 66 68 70 73 77 81 85 86 85 84 85 87 88 89 89 87 86 86 86 84 82
73 78 78 75 74 76 80 81 81 80 80 80 79 79 78 77 77 79 80 79 77 74 72 70 70 69 68 67 67 67 68 68 68 67 65 64 64 65 66 66 66 67 69 70 73 77 81 84 84 83 84 86 88 89 91 92 93 93 91 88 85 82
78 82 83 82 83 84 85 84 84 84 83 82 81 79 79 79 79 80 81 80 79 76 75 74 73 72 71 70 70 70 70 70 69 68 67 67 67 67 67 68 69 71 73 74 76 79 81 82 81 80 81 84 85 87 88 89 90 90 88 86 84 83
85 85 85 86 88 89 89 87 86 86 86 86 84 82 81 80 80 80 80 79 78 77 76 77 77 76 75 74 73 72 71 70 70 70 70 71 71 70 70 70 71 73 75 77 78 79 80 79 78 77 78 79 80 80 81 82 83 84 85 86 85 83
94 90 88 88 90 91 91 89 86 86 87 89 90 88 85 83 82 82 81 80 80 80 80 80 81 80 79 78 76 75 73 72 72 72 73 74 75 75 74 74 73 74 75 77 79 80 80 80 79 79 78 78 79 81 82 84 86 87 88 89 86 82
102 98 94 91 91 92 92 90 87 86 87 90 92 91 89 86 84 84 84 84 85 85 85 84 83 82 81 80 78 76 75 75 76 77 78 79 79 80 79 77 76 75 75 76 79 82 84 85 85 84 84 85 87 89 90 92 92 91 89 86 82 76
107 104 101 97 95 93 91 89 86 85 87 89 91 92 91 89 86 85 86 87 89 89 89 88 86 84 83 82 81 80 80 80 82 83 83 84 84 85 84 81 79 78 76 75 77 80 83 85 87 89 91 92 93 95 96 97 94 90 86 81 75 70
111 109 106 104 102 99 95 90 87 87 88 89 90 92 92 91 89 87 87 87 89 90 91 90 89 87 85 83 83 83 84 85 86 86 86 85 84 83 82 81 80 79 78 79 81 84 86 89 92 94 94 94 94 95 95 93 89 84 79 73 68 65
111 111 110 109 107 105 102 97 93 94 95 95 94 94 93 92 91 90 89 89 89 90 91 92 92 91 89 87 86 86 86 87 88 89 90 89 86 84 82 82 84 86 89 92 93 94 94 96 97 98 97 96 94 92 89 84 80 75 70 65 63 64
105 108 110 111 110 109 107 105 103 104 105 105 105 103 101 99 98 96 94 92 91 91 92 94 95 95 94 92 90 90 90 90 90 91 93 93 92 91 91 91 93 95 98 100 100 98 97 96 96 95 95 92 87 82 78 75 72 68 65 63 63 65

ECMWFFLT1_500_spd_009.txt.gz
Wind_Speed
40 37 33 34 36 35 36 39 41 43 44 44 45 46 47 48 46 46 47 47 47 48 49 49 50 51 53 54 55 56 56 57 58 58 58 59 59 59 59 59 59 59 59 59 59 59 58 58 59 60 61 63 63 63 63 64 64 64 63 61 60 58
37 37 33 33 36 38 38 40 43 45 45 45 48 50 48 48 48 46 48 50 49 50 50 51 52 53 53 54 55 55 56 57 58 59 60 60 60 60 61 61 61 61 61 61 61 61 61 61 61 61 62 62 62 62 62 63 63 63 62 61 60 59
37 39 38 36 38 41 42 43 45 46 47 47 51 53 50 51 54 51 49 51 52 51 51 51 52 54 54 54 55 55 56 58 60 61 62 63 63 63 63 63 63 63 63 63 63 63 63 63 64 64 63 62 62 62 60 60 60 60 61 61 61 61
45 47 46 42 41 44 46 47 47 48 50 51 54 56 55 57 60 57 53 53 55 54 52 51 52 54 55 56 57 57 59 61 63 65 66 65 64 64 63 62 63 63 64 65 64 64 65 65 65 65 64 63 62 61 58 57 57 57 58 59 60 60
53 51 49 46 45 46 49 52 52 51 52 54 56 58 59 61 63 62 58 55 55 56 54 53 52 53 54 56 57 59 60 63 65 67 67 66 66 65 63 62 62 63 65 65 65 66 66 66 65 64 63 62 61 59 57 56 56 57 58 59 60 61
58 52 49 47 47 49 51 55 56 55 53 55 57 59 62 64 65 64 61 56 54 56 57 56 55 55 55 56 57 58 60 61 62 63 64 64 65 65 64 62 62 63 64 64 65 66 66 66 65 64 62 61 60 59 59 59 59 61 62 62 63 64
63 58 54 52 52 54 55 56 57 58 57 58 59 60 63 65 66 64 61 57 55 56 58 58 57 56 55 55 56 58 59 60 59 60 60 60 61 63 63 62 61 60 61 62 62 64 65 65 65 64 62 61 60 61 61 62 63 65 65 65 65 65
68 67 64 60 58 60 61 62 62 63 63 62 62 63 64 66 66 65 63 59 57 56 56 57 57 55 54 54 54 55 57 57 57 56 57 57 58 60 62 62 60 59 59 59 60 62 64 65 65 64 63 62 62 62 63 65 66 67 66 65 65 65
73 72 69 66 63 63 64 65 65 66 67 65 63 65 66 66 67 67 65 62 59 56 55 55 56 56 55 54 55 55 55 55 54 54 55 56 58 59 61 61 61 59 58 59 60 61 63 64 65 65 64 63 63 65 66 67 68 67 66 66 66 66
76 74 73 70 68 66 67 67 67 67 68 65 64 66 66 66 68 69 67 66 62 59 57 58 58 58 58 58 59 58 57 55 55 56 57 59 60 61 61 62 61 59 60 61 62 62 63 64 64 64 63 63 64 66 67 68 68 67 67 67 67 67
78 76 75 74 72 70 69 69 70 71 70 68 66 67 67 68 69 70 69 69 66 63 62 63 63 62 62 62 62 63 61 60 61 62 63 63 62 62 62 62 62 61 61 62 63 64 64 63 63 63 63 63 64 65 67 67 67 67 67 67 67 67
76 75 75 75 75 72 70 70 71 72 71 69 67 67 69 71 72 71 70 69 69 68 69 70 70 69 67 65 65 66 66 65 65 66 67 66 63 62 62 62 61 61 62 64 64 64 63 63 62 62 62 62 63 64 65 66 66 67 67 68 68 68
76 76 75 75 76 75 73 71 70 70 69 67 67 68 70 72 74 74 73 71 72 74 75 76 76 75 72 70 69 69 69 68 68 69 70 69 66 64 63 63 62 62 63 64 65 65 64 62 61 60 61 61 62 63 64 65 66 67 68 68 67 66
78 78 77 75 76 77 75 72 69 66 67 68 70 70 71 74 76 77 77 76 77 78 79 79 79 78 76 74 73 72 72 72 71 71 71 71 69 67 67 66 66 65 64 64 64 64 62 60 60 60 60 61 62 63 64 66 66 66 65 64 63 61
78 80 80 79 77 76 75 72 69 67 69 72 74 74 75 77 79 81 81 81 82 83 83 83 82 81 79 77 75 75 74 73 72 72 72 71 71 70 70 70 69 68 67 65 63 62 60 60 60 60 61 62 63 65 65 65 64 62 61 59 57 56
77 80 82 81 79 76 75 73 73 74 75 75 75 77 79 80 81 83 84 86 87 88 88 87 86 84 81 79 78 77 75 74 72 72 72 73 73 72 71 72 71 70 68 65 62 60 60 61 61 62 64 64 64 64 62 61 59 58 57 56 54 54
77 79 80 80 79 78 78 79 80 82 82 78 76 79 82 83 84 84 85 86 87 87 87 87 86 84 83 82 80 77 75 74 72 72 72 74 74 73 73 72 71 69 67 64 61 59 60 60 62 65 65 63 62 61 59 57 56 56 56 55 54 55
77 78 80 81 82 82 82 84 86 86 84 80 78 80 82 83 84 84 83 82 82 82 82 83 83 82 82 80 79 76 75 74 73 73 74 74 74 73 72 70 68 66 64 61 59 59 59 60 63 65 65 63 61 58 54 54 55 57 57 56 56 56
81 81 82 83 84 86 88 89 87 84 80 77 75 77 81 81 81 81 80 79 78 78 79 80 80 80 80 79 78 78 78 77 76 75 75 75 73 71 69 67 66 64 62 59 56 57 59 61 64 65 63 59 56 52 52 55 58 59 59 59 58 56
84 83 82 82 83 84 85 85 81 77 75 74 73 75 78 80 80 79 78 77 76 76 78 79 80 79 79 79 79 79 80 79 79 77 74 72 70 68 66 65 63 61 58 55 55 58 60 62 62 60 57 55 55 55 58 60 61 60 62 62 59 57
83 80 77 75 76 77 77 77 76 74 73 71 71 72 75 75 75 75 76 76 75 75 76 77 78 79 79 79 78 79 79 79 79 76 72 69 68 67 66 64 61 58 55 56 59 62 62 61 60 59 58 58 58 58 60 62 61 62 63 63 61 60
79 76 72 69 70 72 74 75 74 73 71 69 69 70 72 73 74 73 73 73 74 74 75 76 77 77 77 77 78 78 77 77 78 77 75 71 68 67 66 64 60 57 56 58 60 61 62 61 62 63 62 61 58 58 60 61 61 61 63 63 63 63
77 75 74 76 78 78 77 78 77 76 75 75 74 74 74 75 75 73 72 71 71 72 74 75 77 76 74 74 76 76 75 75 76 77 76 72 68 66 65 63 60 58 57 58 58 60 61 63 64 64 62 60 58 58 59 60 61 61 62 64 65 66
84 84 86 90 94 92 87 85 83 81 79 77 77 78 78 77 76 74 72 70 70 71 73 74 75 75 74 75 75 75 75 76 76 76 74 69 64 62 62 62 62 61 60 60 61 63 64 65 66 65 62 59 57 57 58 60 63 63 62 64 66 69
93 95 96 96 96 93 88 85 83 80 78 77 78 80 80 79 78 78 76 73 72 72 73 74 74 74 74 74 74 75 75 76 75 74 71 66 63 62 63 64 64 64 63 64 65 66 66 67 66 64 61 59 58 58 58 60 63 63 63 65 68 69
93 93 90 89 89 86 83 82 82 82 80 81 82 83 83 82 81 81 79 76 73 73 73 75 76 75 75 74 74 74 74 74 74 72 69 67 66 66 65 66 66 67 67 68 69 68 68 67 64 63 61 58 58 59 60 61 63 64 65 66 68 69
83 83 79 78 81 82 80 81 83 84 83 82 83 85 87 87 86 84 83 80 76 74 74 75 77 77 77 77 77 76 76 76 76 74 72 70 68 66 66 67 69 70 70 72 72 71 67 65 65 65 63 60 59 62 64 64 66 66 65 65 67 68
82 80 76 73 74 78 82 85 86 86 85 84 85 88 91 92 91 89 87 85 81 77 76 76 78 79 80 80 80 80 79 79 77 75 73 71 68 68 68 70 71 73 74 74 73 71 68 67 68 67 64 62 63 65 66 67 68 67 65 65 66 67
96 95 94 90 85 83 84 88 90 92 92 89 88 90 92 94 93 91 89 86 83 80 78 78 80 82 82 82 81 81 81 81 80 78 76 73 71 70 71 71 72 74 75 76 74 73 72 71 69 66 64 65 67 68 68 68 68 66 66 66 68 70
104 107 110 110 105 98 93 90 91 94 95 92 89 89 90 91 90 88 85 84 82 80 79 79 80 82 82 82 82 81 82 81 80 78 76 74 73 73 73 74 74 74 75 76 75 75 73 70 68 67 67 68 68 67 67 68 68 68 69 70 71 74
100 103 107 110 109 107 104 100 95 94 93 90 86 85 85 86 87 86 84 82 80 79 79 80 81 82 82 81 81 80 80 80 79 77 77 76 76 75 76 76 76 75 76 76 75 73 70 66 64 65 66 69 71 71 70 70 71 71 71 72 73 75
97 99 100 101 102 102 102 102 101 99 97 93 89 87 85 84 84 85 86 84 82 81 81 82 82 83 82 81 80 79 80 79 79 78 78 78 78 77 77 78 77 76 75 74 73 72 70 68 67 67 68 71 74 75 73 73 72 71 71 72 73 75
94 95 96 97 98 98 98 98 101 104 105 103 99 97 95 91 86 84 85 87 85 84 84 84 84 84 83 81 79 79 80 80 81 81 80 79 78 77 77 77 76 75 74 73 73 73 74 73 72 72 73 74 74 73 73 73 73 73 73 73 74 76
88 90 92 93 94 96 96 95 96 102 108 111 110 108 107 103 96 88 86 87 87 85 84 84 84 83 82 81 80 81 82 83 84 84 83 81 80 79 78 77 76 75 75 76 76 77 77 75 74 74 75 76 76 75 74 74 74 74 74 75 76 78
83 84 86 88 90 92 94 94 93 96 103 110 113 114 113 110 105 98 91 89 88 86 82 82 83 83 83 82 82 84 86 87 87 86 85 84 83 82 80 78 77 77 77 79 79 80 79 77 76 76 77 78 79 79 79 79 79 80 80 80 82 83
78 79 80 82 85 87 89 90 91 93 99 104 109 112 113 111 110 107 101 95 92 90 86 84 84 85 86 87 87 87 88 89 88 86 84 84 84 83 81 79 78 79 79 79 79 79 79 79 78 79 79 79 80 80 81 81 82 83 83 83 84 84
75 76 77 78 81 83 85 85 86 89 94 98 102 106 108 108 108 109 108 105 103 103 102 99 95 92 90 90 91 92 93 94 92 89 86 84 83 82 81 79 79 79 79 79 79 79 79 79 80 81 81 81 81 81 81 81 82 82 82 82 83 84
73 73 74 76 77 79 79 80 80 83 87 91 94 98 101 102 103 104 106 109 111 113 113 111 108 105 102 99 97 96 97 98 98 95 92 88 86 84 83 81 80 80 80 80 80 79 80 80 81 82 83 84 85 85 86 86 86 85 85 85 85 86

ECMWFFLT1_500_spd_015.txt.gz
Wind_Speed
75 75 76 76 76 75 73 72 70 67 62 55 50 50 52 53 54 54 55 55 57 58 59 62 64 65 65 65 65 64 64 64 64 65 66 66 65 64 63 62 60 58 58 57 57 57 57 56 56 57 57 58 58 58 58 58 58 58 57 56 55 54
75 76 78 78 78 77 75 73 71 69 65 60 54 52 52 54 55 56 57 57 58 60 61 63 65 66 65 64 63 64 64 65 65 65 66 67 67 67 66 64 62 60 59 58 59 59 58 58 58 58 59 59 59 59 59 59 59 59 58 58 57 56
72 73 74 75 73 72 71 69 68 67 65 62 58 55 55 55 56 58 59 60 61 61 63 65 66 67 65 63 61 61 62 64 65 65 65 66 67 68 68 67 65 63 61 59 59 59 59 59 60 60 60 60 60 60 60 60 60 61 60 60 59 59
71 71 71 71 70 69 69 68 67 67 66 64 61 59 58 58 58 59 61 62 63 63 64 66 67 67 66 64 62 61 60 61 62 64 64 64 65 65 66 67 67 66 65 62 61 60 59 59 60 60 61 61 62 62 62 63 63 63 63 63 62 61
70 70 70 70 70 70 69 69 68 67 67 66 65 63 62 62 62 61 61 63 64 65 66 66 67 67 66 65 64 63 62 61 61 62 62 63 64 65 65 65 65 66 66 65 64 62 61 60 60 61 62 63 64 65 66 66 67 67 66 65 64 64
73 73 73 73 73 72 72 72 71 70 69 68 67 67 66 65 66 66 64 62 63 65 66 66 65 65 65 66 66 66 66 65 64 63 63 63 64 65 66 66 65 65 64 63 63 62 61 61 60 61 62 65 66 67 68 68 69 68 68 67 67 67
77 77 77 77 76 76 75 75 75 74 74 73 72 71 70 68 68 70 70 67 62 62 64 65 64 64 64 64 66 67 68 68 68 68 68 67 66 66 67 68 69 69 68 66 64 63 62 62 62 62 63 65 67 68 69 69 70 70 69 69 69 69
80 78 77 77 78 78 78 79 79 79 79 79 79 77 75 73 70 71 74 74 68 63 62 64 65 66 66 67 68 69 69 69 69 69 70 71 71 71 70 71 72 73 74 74 73 71 69 68 67 66 66 67 69 70 70 70 71 71 72 72 72 71
79 78 78 77 78 79 80 80 81 82 82 82 83 82 81 79 76 73 74 77 77 73 69 68 68 68 69 70 71 72 73 73 72 72 71 71 72 74 74 74 73 74 76 77 77 77 76 74 72 70 70 71 72 73 73 73 73 73 74 75 73 71
74 75 76 77 78 79 80 82 82 83 84 84 84 84 83 81 79 76 75 76 79 80 79 76 73 71 72 72 72 73 74 76 77 77 77 75 74 75 76 77 77 76 77 77 77 77 77 76 75 73 73 74 75 76 76 76 76 76 75 75 73 70
71 73 74 76 78 79 80 82 83 83 84 85 85 85 83 81 79 77 76 76 78 79 81 80 77 74 73 74 74 74 75 76 78 80 80 81 80 79 80 81 81 80 79 79 79 78 77 76 75 74 74 74 74 76 78 79 79 78 77 76 74 70
74 76 79 80 82 82 83 83 84 83 83 84 84 85 84 83 81 79 78 77 77 78 79 80 79 77 75 74 74 75 76 77 79 80 82 83 84 85 85 85 86 85 84 83 82 80 79 78 77 76 75 75 75 76 78 80 80 80 79 77 74 71
80 82 83 83 83 84 85 85 86 86 86 86 85 85 85 84 83 81 80 78 77 77 77 77 77 77 76 75 75 77 78 80 81 82 84 85 86 87 88 88 89 89 89 88 87 85 83 82 80 79 78 77 76 77 78 79 79 79 78 77 74 71
86 86 85 84 84 85 85 86 87 88 89 89 89 89 88 87 86 84 82 79 77 76 76 76 76 75 75 75 75 77 79 81 84 86 87 88 88 89 89 90 91 91 92 92 91 90 88 86 84 83 82 81 79 78 78 78 77 76 76 77 76 73
88 87 86 86 86 86 87 87 88 89 90 90 91 91 91 91 90 89 86 84 81 79 77 76 76 75 74 74 74 75 77 79 83 85 87 89 89 89 89 89 90 91 92 92 92 91 89 87 84 81 81 81 81 81 79 78 76 74 74 77 78 77
87 87 86 86 86 86 87 88 88 89 90 91 93 93 93 93 93 92 92 90 88 86 83 81 79 78 77 76 76 76 76 78 80 81 83 84 85 86 86 86 87 88 89 91 92 91 90 88 84 79 75 73 75 77 77 76 74 73 73 75 76 76
87 87 87 86 86 87 87 88 89 89 90 91 93 95 96 96 95 95 94 94 94 94 92 89 86 83 82 81 80 79 79 79 79 80 80 80 80 81 82 83 84 85 87 89 91 91 89 87 83 79 74 71 71 72 73 74 73 72 71 72 72 71
88 87 87 87 87 87 88 88 89 90 91 92 94 95 97 98 99 98 98 97 97 98 97 96 94 91 88 85 84 84 85 85 84 82 81 81 80 79 80 80 81 82 83 83 85 85 82 79 76 75 72 71 72 73 74 74 74 73 71 70 69 68
87 87 87 87 87 87 88 89 89 90 91 92 94 96 97 98 100 101 101 101 100 99 99 99 99 99 97 93 90 88 88 89 89 88 85 84 82 81 81 80 81 82 82 81 80 80 78 74 71 71 71 71 72 73 75 76 76 75 73 71 70 68
85 85 86 86 86 87 88 89 90 90 90 91 92 94 96 97 99 100 101 101 102 102 102 102 102 102 102 101 98 95 92 92 92 92 91 88 86 84 83 83 83 83 84 84 82 81 80 78 76 74 72 71 72 74 75 76 78 78 77 74 72 70
85 85 86 86 87 88 89 89 90 90 90 91 92 93 94 95 97 98 98 99 101 101 102 103 103 103 103 103 103 101 99 96 95 95 94 92 90 87 85 84 85 85 86 87 86 83 81 81 82 80 76 73 73 75 75 76 76 77 77 74 72 70
86 87 88 88 88 88 89 89 89 89 90 90 91 92 93 95 96 96 96 97 98 98 99 99 100 100 100 100 101 102 102 101 99 98 97 96 95 93 90 88 87 88 88 88 87 84 81 80 80 79 76 75 74 75 75 74 72 71 71 71 70 69
89 90 90 90 90 89 90 90 90 89 89 90 90 91 93 94 95 95 96 96 97 97 97 97 97 97 97 96 97 98 100 101 101 100 100 99 98 97 96 94 92 91 91 91 88 84 80 78 77 75 73 74 75 74 73 72 70 68 69 70 70 70
91 91 91 90 90 90 90 90 90 89 89 89 88 90 92 93 93 94 95 96 97 98 99 100 100 98 97 96 95 95 96 97 98 98 97 97 96 96 96 96 95 94 94 92 89 84 79 76 75 73 72 73 74 74 72 71 71 71 71 72 72 72
91 91 90 89 89 90 90 91 91 90 90 89 89 90 91 91 92 93 94 95 96 98 100 102 103 102 101 99 98 96 94 93 93 93 92 92 92 93 92 91 90 90 90 88 83 80 76 73 72 73 73 73 73 73 72 70 71 72 73 72 72 72
90 90 90 89 89 89 90 91 92 92 92 91 91 92 93 92 93 93 93 94 95 97 98 101 103 105 105 104 103 101 98 95 92 91 89 88 88 89 89 87 84 83 83 82 80 78 76 74 71 71 72 73 72 72 72 72 71 72 73 72 72 72
88 89 89 88 88 88 88 90 91 92 91 91 92 93 94 94 94 94 94 94 95 96 97 99 100 102 105 107 108 107 104 101 98 95 92 89 87 86 87 87 85 82 80 78 78 78 78 77 74 71 70 71 72 72 72 73 72 72 73 73 73 74
85 86 87 87 86 86 86 87 89 89 89 89 90 92 93 93 94 94 94 94 94 95 97 98 99 100 101 104 108 110 109 107 105 102 99 96 92 89 88 89 88 86 83 80 77 77 78 79 78 75 71 72 73 73 73 73 72 71 71 71 73 73
84 85 85 85 84 84 85 86 86 86 86 87 88 89 90 91 91 92 92 92 93 94 95 97 99 100 100 101 104 107 110 111 111 109 107 103 99 95 93 92 92 91 90 86 83 80 79 78 79 78 75 73 73 73 73 73 71 70 70 70 70 70
84 84 84 84 83 82 83 83 83 83 83 84 85 85 85 85 86 87 88 88 89 91 92 94 96 97 99 100 101 103 106 108 111 112 112 111 108 105 102 100 98 96 94 92 91 88 85 81 79 78 77 76 75 75 74 73 71 70 70 70 70 69
83 84 84 83 82 81 80 79 79 80 81 82 82 82 82 81 80 81 81 82 83 85 86 89 91 92 95 97 99 100 102 103 105 107 109 109 110 111 111 110 107 104 100 98 96 95 91 86 80 78 78 77 76 76 77 76 73 71 70 70 71 71
82 83 83 81 80 79 78 76 75 76 77 79 80 80 79 78 77 77 76 76 78 79 80 82 84 86 88 91 93 95 97 99 100 102 103 102 101 102 104 106 107 107 106 103 100 97 94 88 82 79 78 77 74 75 76 77 75 73 70 70 71 72
80 80 80 79 77 76 74 72 70 70 71 72 73 73 73 73 73 73 72 72 73 74 75 77 78 79 81 83 85 88 91 93 94 96 98 98 97 96 96 96 98 100 101 100 97 95 92 87 81 79 78 76 74 74 74 74 75 75 74 73 73 73
77 76 75 73 70 68 66 65 64 64 65 65 66 67 68 68 69 69 68 67 68 69 70 71 72 73 74 75 78 81 84 87 89 89 90 91 93 92 92 91 91 93 94 93 90 89 88 84 80 79 78 76 75 74 74 75 75 76 77 78 77 76
72 69 67 66 64 63 62 61 60 61 62 63 64 65 65 65 65 64 63 62 62 63 64 65 65 65 67 68 70 73 75 79 82 83 84 85 87 88 88 87 86 87 89 89 86 85 86 84 81 80 79 77 75 75 75 75 76 76 78 79 78 77
66 65 65 64 63 61 59 58 58 59 60 60 60 61 61 61 60 59 58 56 56 56 57 57 58 58 59 61 63 64 67 70 73 76 79 80 81 82 83 83 82 83 85 86 84 83 85 84 83 82 80 77 76 76 76 76 76 76 75 75 73 72
64 65 64 62 60 57 56 56 57 58 58 57 57 56 56 55 55 54 53 52 52 52 52 52 52 52 53 54 55 57 59 61 63 67 71 74 75 76 77 77 78 78 81 82 82 81 83 84 84 84 83 79 75 75 76 77 77 76 74 74 73 71
64 63 61 59 58 57 56 57 58 57 56 55 54 53 52 52 51 50 50 49 49 48 48 49 49 49 49 50 50 51 52 54 56 58 62 65 68 70 71 71 72 73 76 78 79 79 82 84 85 86 86 82 78 77 77 78 77 75 74 74 74 72

ECMWFFLT1_500_spd_021.txt.gz
Wind_Speed
67 66 64 63 63 64 65 66 66 67 67 68 69 69 69 67 65 64 63 64 64 65 66 67 67 69 71 73 73 71 70 70 71 72 73 74 75 77 78 79 79 78 76 75 74 74 74 75 75 76 76 76 75 75 75 74 73 73 72 73 73 74
67 67 67 67 68 68 68 69 70 72 73 73 71 70 69 69 67 65 65 66 67 68 69 70 71 72 73 75 76 75 73 72 72 73 73 74 75 77 78 79 81 81 81 80 79 77 77 76 76 77 77 77 76 76 75 75 74 73 72 72 72 73
66 67 67 68 69 71 72 73 74 76 75 74 72 70 70 70 70 70 69 69 70 71 72 74 75 75 76 76 79 80 77 74 73 73 73 74 75 77 79 80 81 82 83 83 83 82 80 78 77 76 76 76 76 76 75 75 75 74 73 72 71 72
69 70 71 72 73 75 76 76 76 75 74 73 72 71 70 70 70 71 72 72 73 74 76 77 78 78 79 81 82 82 79 75 74 73 72 73 75 77 79 81 82 84 85 85 85 85 83 81 79 77 76 74 73 73 74 75 76 75 74 73 71 71
74 76 77 78 79 79 78 77 76 75 74 74 74 73 73 72 72 72 72 72 73 75 76 78 80 81 83 85 85 84 80 78 76 75 73 74 75 77 79 81 82 84 85 86 87 87 86 83 81 80 78 76 74 72 72 73 74 75 75 75 73 71
78 79 81 82 82 81 80 79 78 76 75 73 72 72 72 73 73 73 72 72 73 74 75 77 79 80 82 84 85 84 83 81 79 77 75 76 78 79 80 82 83 84 85 85 86 86 87 86 84 82 80 78 77 75 73 72 72 73 74 74 74 72
80 81 81 82 82 82 81 79 78 76 75 75 74 75 76 77 77 78 79 80 81 82 82 83 83 84 85 85 86 86 85 84 82 79 77 78 80 81 82 83 84 84 85 86 86 86 86 87 86 85 83 80 78 77 75 73 72 72 73 73 73 73
78 77 76 76 76 76 77 77 78 78 80 81 82 84 86 87 87 87 87 88 89 89 89 88 88 87 88 88 89 89 89 89 88 86 83 82 82 82 83 84 84 84 84 85 86 86 86 86 86 86 85 84 82 79 78 76 75 74 74 74 74 73
76 76 75 76 76 78 81 83 85 87 88 90 91 93 94 94 94 93 93 92 91 90 89 89 89 89 89 89 89 89 89 90 90 90 89 88 87 87 86 86 86 86 85 84 84 84 85 86 86 85 85 85 84 83 81 79 78 77 76 76 76 76
85 85 86 86 87 89 90 92 94 95 95 96 96 97 97 97 96 95 94 93 91 90 89 89 89 90 90 91 92 92 92 92 92 91 90 89 89 89 90 90 91 90 90 89 87 86 85 85 86 86 86 85 84 84 84 82 82 80 79 79 79 79
89 90 91 92 93 93 94 95 96 96 96 97 97 96 96 95 95 94 94 93 92 91 90 89 88 88 88 89 90 91 92 93 94 93 92 90 89 88 88 89 90 91 93 93 92 89 87 86 86 86 87 88 87 86 86 85 85 84 83 82 81 82
87 89 91 92 93 94 95 95 95 95 95 95 95 95 95 95 94 94 93 92 92 91 90 89 88 88 87 87 87 88 89 89 90 91 91 91 91 90 89 88 87 88 89 92 93 91 89 88 88 88 88 88 89 89 89 88 87 87 86 84 84 84
87 89 90 91 92 93 93 93 93 93 93 93 93 94 93 94 93 93 93 93 92 92 92 92 91 91 90 90 90 90 90 90 90 90 90 91 91 91 92 91 90 89 88 88 90 91 90 88 88 89 89 89 90 90 90 90 90 90 88 87 86 85
88 88 89 90 90 91 92 92 92 92 92 92 92 92 92 92 93 93 93 94 94 95 96 96 96 96 96 96 96 96 95 95 95 95 94 94 94 94 93 93 94 93 93 91 90 89 90 89 89 90 90 91 92 92 91 91 90 91 91 91 89 88
86 87 87 88 88 89 90 91 92 93 93 93 93 93 94 94 95 95 96 96 97 98 99 100 100 100 101 101 101 101 101 102 102 101 101 100 100 99 98 97 97 96 96 96 95 93 91 90 90 92 93 94 94 94 94 93 91 91 91 92 92 92
83 84 85 85 86 87 88 89 91 91 92 93 94 94 95 96 96 97 98 98 99 100 101 103 103 104 104 105 105 106 106 106 106 107 107 107 106 105 104 103 102 101 100 99 99 99 97 95 93 94 95 96 97 97 97 96 95 93 92 91 91 93
81 81 82 82 83 84 85 87 88 89 90 91 93 94 95 96 97 97 99 99 100 101 102 103 104 105 105 106 107 108 108 109 109 109 110 111 111 111 111 110 108 107 105 104 103 102 101 101 100 99 99 99 100 101 100 99 98 97 96 94 92 91
77 78 79 80 81 82 84 85 86 87 88 89 90 92 93 94 95 96 97 98 99 100 101 102 103 104 105 106 106 107 108 108 109 110 111 112 112 113 114 114 114 114 112 111 109 107 105 104 105 105 105 104 103 103 103 104 102 100 98 97 95 92
72 73 74 75 76 78 80 81 82 83 84 85 86 88 89 90 92 93 94 95 96 97 98 99 100 102 103 103 104 105 105 106 106 107 108 110 112 112 113 115 116 117 117 117 116 114 112 110 108 108 109 109 108 107 106 105 106 105 102 99 97 96
68 68 69 70 71 73 75 76 77 78 80 81 82 83 85 86 87 89 90 91 92 93 94 95 96 98 98 98 99 100 101 102 102 103 104 105 107 109 110 111 113 115 117 118 118 118 117 115 112 109 108 109 111 111 110 108 107 107 106 103 100 98
66 66 67 68 69 70 72 73 73 75 76 77 78 79 80 82 83 84 85 87 88 89 90 91 93 94 95 95 95 95 97 98 98 99 99 101 102 103 104 105 107 109 110 112 114 115 116 115 112 108 105 105 107 110 112 112 110 108 107 107 105 102
65 65 66 67 68 69 70 71 72 73 74 76 77 78 80 81 82 83 84 85 86 87 88 90 91 92 92 93 93 92 92 94 95 95 96 97 98 99 99 99 100 102 103 104 105 107 109 110 108 104 101 100 102 105 109 112 113 111 108 108 108 106
64 65 66 67 69 69 71 72 73 74 75 76 78 79 80 81 82 83 84 85 86 86 87 88 89 90 91 92 92 92 92 92 93 94 95 96 97 97 97 96 97 98 99 99 99 100 101 102 103 101 97 95 96 99 102 107 111 112 111 109 108 108
64 65 66 68 69 70 71 72 73 74 76 77 78 80 81 82 83 84 85 85 86 86 87 88 89 90 91 92 92 93 92 92 92 93 94 95 96 95 95 95 95 96 97 96 96 97 97 97 97 97 96 93 91 93 96 100 104 108 110 111 110 108
64 65 66 68 69 70 72 73 74 75 76 78 79 81 82 84 85 86 86 86 87 87 87 88 88 89 90 91 91 92 92 91 91 92 93 94 95 94 94 93 94 95 95 95 95 95 95 95 95 95 94 93 91 90 91 94 98 101 105 109 110 109
64 64 66 67 69 70 71 72 74 75 76 77 79 81 83 84 85 86 86 86 86 86 86 86 86 86 87 88 88 89 89 88 89 90 90 91 92 92 92 92 92 93 94 94 94 94 93 93 93 93 93 92 91 90 89 90 92 95 98 103 107 109
64 64 65 66 67 68 69 70 72 73 75 77 79 81 83 84 85 85 85 84 84 84 83 83 82 82 81 81 81 80 80 79 80 80 81 82 83 84 85 85 86 88 90 90 91 91 91 91 92 92 92 91 91 90 89 88 89 91 94 97 101 105
63 64 64 64 64 65 66 68 70 72 74 76 78 81 82 83 83 82 82 82 81 80 79 77 74 73 72 70 70 70 70 70 71 72 72 73 73 74 74 75 76 78 80 82 84 85 86 87 89 90 90 90 90 90 89 88 88 89 91 93 95 98
61 62 61 61 62 64 65 67 69 72 75 77 79 80 81 81 81 80 79 77 76 73 70 68 66 64 63 63 64 66 66 67 69 69 70 71 71 70 69 69 68 69 70 72 74 76 78 80 82 84 85 86 87 88 89 88 88 88 89 91 92 93
59 58 58 59 61 63 65 67 69 72 75 77 78 79 78 77 77 76 73 71 68 65 64 63 62 61 60 60 61 63 64 65 66 67 68 69 70 70 70 68 66 65 65 65 66 68 70 72 74 76 78 79 81 84 86 87 87 87 87 88 89 90
55 56 57 59 61 63 65 67 70 72 74 75 75 75 73 72 71 69 67 65 63 62 62 61 59 58 58 58 58 60 62 63 65 65 65 65 66 67 68 67 66 65 64 63 62 62 63 64 65 67 70 73 76 78 81 83 84 84 85 85 86 88
53 55 57 59 61 64 65 67 69 71 71 70 69 69 68 67 66 64 62 61 60 59 58 56 54 55 56 57 58 59 60 61 63 64 63 63 63 63 64 64 64 64 63 61 59 59 59 57 57 59 63 67 70 72 74 76 78 80 81 81 83 86
53 55 57 60 62 63 64 65 66 65 64 63 64 65 65 65 64 61 59 57 55 52 50 50 51 54 56 57 58 59 58 58 59 60 60 60 60 60 60 61 61 61 62 61 58 57 56 54 53 55 57 60 63 66 68 69 71 74 76 77 79 83
53 56 58 60 61 62 62 61 59 58 58 59 60 61 62 63 62 58 54 51 48 46 46 49 52 53 54 55 55 54 54 53 52 51 52 54 54 55 55 56 56 56 57 57 56 54 53 51 51 53 54 56 58 60 62 63 65 68 71 73 75 80
55 57 58 59 59 58 56 53 52 53 53 54 56 57 59 60 58 53 47 43 41 43 46 48 49 50 50 50 50 50 50 50 50 49 49 50 51 52 53 53 54 53 53 53 53 52 50 49 49 50 51 53 54 55 57 59 60 63 66 68 72 76
56 58 58 57 55 52 49 47 47 47 47 48 50 53 55 55 52 46 41 39 39 42 45 46 46 46 47 47 48 49 51 52 52 51 50 49 49 50 51 51 52 52 52 50 50 49 48 46 46 47 49 50 51 52 53 55 57 58 61 64 68 71
57 57 56 54 50 45 42 41 41 40 41 43 46 48 50 49 46 41 37 37 38 41 43 44 45 45 45 46 48 50 52 52 52 50 49 47 46 45 45 45 46 47 47 46 45 45 45 44 44 45 46 47 48 49 50 52 53 54 56 60 63 65
57 55 53 49 43 39 36 36 36 36 37 39 42 44 46 45 42 38 36 36 37 39 41 43 44 44 44 45 48 51 52 51 49 47 45 44 43 42 41 41 41 41 42 41 40 40 41 42 42 43 44 45 46 46 47 48 49 49 51 54 56 58